This is the latest recevied weather packets stored in our database for station/object WA1TYB-13. If no packets are shown the sender has not sent any weather packets the latest 10 day(s).
| Time | Temp. | Humidity | Pressure | Rain* | Wind** | Luminosity | Snow |
|---|---|---|---|---|---|---|---|
| 1777545482 | 0° C | 76% | 1026 hPa | 0 mm | - | 0 W/m² | - |
| 1777545179 | 0° C | 76% | 1026.2 hPa | 0 mm | - | 0 W/m² | - |
| 1777544877 | 0° C | 76% | 1026 hPa | 0 mm | - | 0 W/m² | - |
| 1777544572 | 0.56° C | 75% | 1026 hPa | 0 mm | - | 0 W/m² | - |
| 1777544269 | 0.56° C | 74% | 1026.1 hPa | 0 mm | - | 0 W/m² | - |
| 1777543966 | 0.56° C | 73% | 1026.1 hPa | 0 mm | - | 0 W/m² | - |
| 1777543663 | 0.56° C | 72% | 1025.9 hPa | 0 mm | - | 0 W/m² | - |
| 1777543359 | 0.56° C | 72% | 1026.1 hPa | 0 mm | - | 0 W/m² | - |
| 1777543054 | 1.11° C | 71% | 1025.7 hPa | 0 mm | - | 0 W/m² | - |
| 1777542751 | 1.11° C | 71% | 1025.7 hPa | 0 mm | - | 0 W/m² | - |
| 1777542448 | 1.11° C | 71% | 1025.8 hPa | 0 mm | - | 0 W/m² | - |
| 1777542144 | 0.56° C | 74% | 1026 hPa | 0 mm | - | 0 W/m² | - |
| 1777541841 | 0.56° C | 74% | 1026.2 hPa | 0 mm | - | 0 W/m² | - |
| 1777541538 | 0.56° C | 74% | 1026.1 hPa | 0 mm | - | 0 W/m² | - |
| 1777541235 | 0.56° C | 73% | 1025.8 hPa | 0 mm | - | 0 W/m² | - |
| 1777540931 | 0.56° C | 74% | 1026 hPa | 0 mm | - | 0 W/m² | - |
| 1777540629 | 0.56° C | 74% | 1026 hPa | 0 mm | - | 0 W/m² | - |
| 1777540326 | 0.56° C | 74% | 1025.8 hPa | 0 mm | - | 0 W/m² | - |
| 1777540022 | 0.56° C | 73% | 1026 hPa | 0 mm | - | 0 W/m² | - |
| 1777539717 | 0.56° C | 72% | 1025.9 hPa | 0 mm | - | 0 W/m² | - |
| 1777539414 | 1.11° C | 71% | 1025.7 hPa | 0 mm | - | 0 W/m² | - |
| 1777539110 | 1.11° C | 70% | 1025.9 hPa | 0 mm | - | 0 W/m² | - |
| 1777538807 | 1.67° C | 69% | 1025.9 hPa | 0 mm | - | 0 W/m² | - |
| 1777538506 | 1.11° C | 70% | 1025.7 hPa | 0 mm | - | 0 W/m² | - |
| 1777538203 | 1.11° C | 70% | 1025.9 hPa | 0 mm | - | 0 W/m² | - |
* Rain latest hour (hover to see other rain measurements)
** Current wind speed in m/s (hover to see current wind gust speed)